My Meet Scores
Top100 | Top Teams | Upcoming Meets | Completed Meets | Latest | Add Scores | Help| Bookmark and Share

Elgin Gymnastics Invitational - MyMeetScores.com
Elgin Gymnastics Invitational
Start End Host Meet Website
2009-02-202009-02-22 Spring Hill Gymnastics Inc.Click here
Meet Scores Level: 6 Division: Lvl6:11yrs.
Team Scores  Show Personal Bests    All Scores  Level:   4,  5,  6,  7,
#Name Team Session Level DivisionVaultBarsBeamFloorAA
1Panton, MikaylaGainers Gymnastics 6 Lvl6:11yrs.9.175 (1)9.400 (1)9.400 (1)9.000 (3)36.975 (1)
2Rumel, KatePremier Gymnastics Academy West 6 Lvl6:11yrs.8.850 (3)8.775 (5)9.275 (2)9.025 (1)35.925 (2)
3Edmunds, MelissaEnergym Gymnastics 6 Lvl6:11yrs.8.800 (6)8.800 (4)9.000 (8)8.750 (8)35.350 (3)
4Morreale, AlisonEnergym Gymnastics 6 Lvl6:11yrs.8.900 (2)8.150 (10)9.175 (3)8.950 (4)35.175 (4)
4Egan, PaigeOak Lawn Pirouette's Gymnastics 6 Lvl6:11yrs.8.450 (16)9.100 (3)9.025 (7)8.600 (11)35.175 (5)
6Bohnstedt, AlexMaximum Gymnastics Training Center 6 Lvl6:11yrs.8.775 (9)9.200 (2)8.900 (11)8.200 (17)35.075 (6)
7Smith, EmaleeSpring Hill Gymnastics Inc. 6 Lvl6:11yrs.8.850 (4)7.800 (16)9.100 (4)8.800 (7)34.550 (7)
8Jones, JadaU.S. Gymnastic Training Center 6 Lvl6:11yrs.8.775 (10)7.750 (17)8.950 (9)8.750 (9)34.225 (8)
9Estvander, AlyssaArena Gymnastics 6 Lvl6:11yrs.8.725 (11)8.500 (6)8.900 (12)8.050 (19)34.175 (9)
10Vargas, DanielleGym Kinetics Sports Complex 6 Lvl6:11yrs.8.800 (7)8.200 (9)8.700 (14)8.400 (15)34.100 (10)
11Amann, CarolinePremier Gymnastics Academy West 6 Lvl6:11yrs.8.825 (5)7.550 (19)9.050 (5)8.600 (12)34.025 (11)
11Burright, LeanzaEnergym Gymnastics 6 Lvl6:11yrs.8.800 (8)7.450 (20)8.750 (13)9.025 (2)34.025 (12)
13Penteris, NinaArena Gymnastics 6 Lvl6:11yrs.8.500 (14)8.050 (13)8.925 (10)8.400 (16)33.875 (13)
14Fye, AlexisU.S. Gymnastic Training Center 6 Lvl6:11yrs.8.600 (12)7.850 (15)8.500 (16)8.900 (6)33.850 (14)
15Skowyra, NinaU.S. Gymnastic Training Center 6 Lvl6:11yrs.8.425 (18)7.750 (18)8.500 (17)8.950 (5)33.625 (15)
16Gustafson, BridgetPremier Gymnastics Academy West 6 Lvl6:11yrs.8.400 (20)8.300 (8)9.050 (6)7.750 (21)33.500 (16)
17Lajewski, KarlieHuntley Unlimited Gymnastics School 6 Lvl6:11yrs.8.525 (13)8.350 (7)8.050 (20)8.450 (14)33.375 (17)
18Mc Nicholas, RebeccaOak Lawn Pirouette's Gymnastics 6 Lvl6:11yrs.8.500 (15)8.000 (14)8.000 (21)8.700 (10)33.200 (18)
19Reagan, ShaninGymkhana Gymnastics Club and Dance 6 Lvl6:11yrs.8.350 (21)8.100 (12)8.450 (18)8.200 (18)33.100 (19)
20Sprengel, AllisonGymkhana Gymnastics Club and Dance 6 Lvl6:11yrs.8.425 (19)8.150 (11)8.700 (15)7.725 (22)33.000 (20)
21Black, JessieU.S. Gymnastic Training Center 6 Lvl6:11yrs.8.350 (22)6.300 (22)8.200 (19)8.600 (13)31.450 (21)
22Kelly, EmilyIllinois Gymnastics Institute Inc. 6 Lvl6:11yrs.8.450 (17)7.250 (21)7.250 (22)7.850 (20)30.800 (22)